M3SXA-5 Weather Reports


time (UTC)temp
F
wind
direction
speed
knots
gust
knots
rain 1hr
in
rain 24hr
in
rain mn
in
humidity
%
barometer
mb
20260507113039 59 314 0.9 3.5 0.00 0.00 0.00 53 1017.4
20260507111537 59 338 0.0 4.3 0.00 0.00 0.00 56 1017.5
20260507110035 58 309 0.9 4.3 0.00 0.00 0.00 56 1017.6
20260507104532 58 359 0.0 4.3 0.00 0.00 0.00 59 1017.7
20260507103033 56 313 0.0 2.6 0.00 0.00 0.00 61 1017.7
20260507101532 57 27 0.9 2.6 0.00 0.00 0.00 59 1017.8
20260507100035 57 303 0.9 3.5 0.00 0.00 0.00 61 1017.8
20260507094528 56 346 0.0 2.6 0.00 0.00 0.00 64 1017.7
20260507093025 55 335 0.0 1.7 0.00 0.00 0.00 66 1017.8
20260507091522 54 323 0.0 2.6 0.00 0.00 0.00 69 1017.7
20260507090022 53 334 0.0 2.6 0.00 0.00 0.00 74 1017.7
20260507084518 53 311 0.9 3.5 0.00 0.00 0.00 71 1017.9
20260507083015 52 326 0.0 1.7 0.00 0.00 0.00 73 1017.8
20260507081530 52 349 0.0 2.6 0.00 0.00 0.00 74 1017.7
20260507080009 50 305 0.9 2.6 0.00 0.00 0.00 79 1017.7
20260507074517 49 313 0.0 1.7 0.00 0.00 0.00 81 1017.7
20260507073006 50 337 0.0 2.6 0.00 0.00 0.00 81 1017.7
20260507071504 47 307 0.0 1.7 0.00 0.00 0.00 85 1017.7
20260507070002 48 342 0.0 1.7 0.00 0.00 0.00 85 1017.6
20260507064558 47 297 0.0 1.7 0.00 0.00 0.00 88 1017.7
20260507063057 46 317 0.0 1.7 0.00 0.00 0.00 91 1017.7
20260507061552 45 347 0.0 0.9 0.00 0.00 0.00 92 1017.6
20260507060048 43 349 0.0 0.9 0.00 0.00 0.00 93 1017.3
20260507054616 43 20 0.0 0.9 0.00 0.00 0.00 93 1017.3
20260507053050 42 20 0.0 0.9 0.00 0.00 0.00 93 1017.3
20260507051545 42 20 0.0 0.0 0.00 0.00 0.00 93 1017.2
20260507050043 41 20 0.0 0.0 0.00 0.00 0.00 94 1017.1
20260507044549 40 20 0.0 0.0 0.00 0.00 0.00 94 1017.1
20260507043045 39 20 0.0 0.0 0.00 0.00 0.00 94 1017.1
20260507041548 38 20 0.0 0.0 0.00 0.00 0.00 92 1017.0
20260507040044 39 20 0.0 0.0 0.00 0.00 0.00 92 1016.9
20260507034542 39 20 0.0 0.0 0.00 0.00 0.00 92 1016.9
20260507033042 39 20 0.0 0.0 0.00 0.00 0.00 92 1016.9
20260507031541 40 20 0.0 0.0 0.00 0.00 0.00 91 1016.9
20260507030046 41 20 0.0 0.0 0.00 0.00 0.00 91 1016.9
20260507024541 42 20 0.0 0.0 0.00 0.00 0.00 91 1016.9
20260507023033 42 20 0.0 0.9 0.00 0.00 0.00 91 1017.0
20260507021535 42 20 0.0 0.9 0.00 0.00 0.00 91 1017.0
20260507020032 42 20 0.0 0.9 0.00 0.00 0.00 91 1017.0
20260507014543 42 20 0.0 0.9 0.00 0.00 0.00 91 1017.1
20260507013029 42 20 0.0 0.9 0.00 0.00 0.00 92 1017.0
20260507011529 42 20 0.0 0.9 0.00 0.00 0.00 92 1017.1
20260507010032 42 20 0.0 0.0 0.00 0.00 0.00 92 1017.1
20260507004525 41 20 0.0 0.9 0.00 0.00 0.00 92 1017.1
20260507003024 41 16 0.0 0.9 0.00 0.00 0.00 92 1017.2
20260507001527 41 16 0.0 0.9 0.00 0.00 0.00 92 1017.3
20260507000032 40 16 0.0 0.0 0.00 0.00 0.00 92 1017.3
20260506234522 40 16 0.0 0.9 0.00 0.00 0.00 91 1017.2
20260506233021 40 16 0.0 0.0 0.00 0.00 0.00 91 1017.3
20260506231518 41 16 0.0 0.9 0.00 0.00 0.00 90 1017.1
20260506230017 41 16 0.0 0.9 0.00 0.00 0.00 90 1017.0
20260506224514 41 15 0.0 0.9 0.00 0.00 0.00 90 1017.0
20260506223012 42 14 0.0 0.9 0.00 0.00 0.00 89 1017.1
20260506221511 42 36 0.0 0.9 0.00 0.00 0.00 89 1017.1
20260506220019 42 149 0.9 3.5 0.00 0.00 0.00 89 1017.1
20260506214512 42 162 0.0 1.7 0.00 0.00 0.00 89 1017.1
20260506213008 42 151 0.0 1.7 0.00 0.00 0.00 88 1017.0
20260506211509 43 136 0.0 0.9 0.00 0.00 0.00 87 1016.9
20260506210033 43 135 0.0 0.9 0.00 0.00 0.00 86 1016.8
20260506204534 44 135 0.0 2.6 0.00 0.00 0.00 85 1016.7
20260506203031 45 119 0.0 1.7 0.00 0.00 0.00 84 1016.4
20260506201531 45 150 0.0 1.7 0.00 0.00 0.00 82 1016.5
20260506200029 46 74 0.0 0.9 0.00 0.00 0.00 81 1016.4
20260506194528 46 51 0.0 2.6 0.00 0.00 0.00 79 1016.4
20260506193030 47 164 0.0 2.6 0.00 0.00 0.00 78 1016.3
20260506191527 48 153 0.9 4.3 0.00 0.00 0.00 77 1016.2
20260506190025 49 328 0.0 4.3 0.00 0.00 0.00 75 1016.2
20260506184524 50 349 0.0 2.6 0.00 0.00 0.00 73 1016.1
20260506183022 50 163 0.0 1.7 0.00 0.00 0.00 72 1015.8
20260506181521 50 152 0.0 3.5 0.00 0.00 0.00 70 1015.7
20260506180021 51 173 0.9 4.3 0.00 0.00 0.00 67 1015.5
20260506174519 51 137 0.0 4.3 0.00 0.00 0.00 66 1015.2
20260506173019 51 169 0.9 5.2 0.00 0.00 0.00 66 1015.3
20260506171521 51 191 0.9 5.2 0.00 0.00 0.00 66 1015.2
20260506170021 52 83 0.9 6.1 0.00 0.00 0.00 64 1015.2
20260506164517 52 146 0.0 4.3 0.00 0.00 0.00 60 1015.2
20260506163031 54 191 0.9 4.3 0.00 0.00 0.00 59 1015.0
20260506161516 54 338 0.0 4.3 0.00 0.00 0.00 58 1015.0
20260506160019 54 342 0.9 4.3 0.00 0.00 0.00 56 1015.0
20260506154514 54 261 0.9 2.6 0.00 0.00 0.00 55 1015.2
20260506153012 54 148 0.9 4.3 0.00 0.00 0.00 57 1015.3
20260506151512 55 142 0.9 4.3 0.00 0.00 0.00 56 1015.2
20260506150012 54 176 1.7 6.1 0.00 0.00 0.00 57 1015.4
20260506144511 54 145 0.9 5.2 0.00 0.00 0.00 57 1015.4
20260506143011 54 156 2.6 6.1 0.00 0.00 0.00 57 1015.4
20260506141509 54 342 0.0 6.1 0.00 0.00 0.00 57 1015.3
20260506140010 55 347 0.9 4.3 0.00 0.00 0.00 56 1015.4
20260506134509 55 167 0.9 6.1 0.00 0.00 0.00 56 1015.3
20260506133006 55 203 0.9 7.0 0.00 0.00 0.00 57 1015.4
20260506131505 53 150 2.6 6.1 0.00 0.00 0.00 59 1015.5
20260506130004 54 333 1.7 6.1 0.00 0.00 0.00 58 1015.5
20260506124503 54 349 0.0 6.1 0.00 0.00 0.00 59 1015.5
20260506123001 53 150 1.7 8.7 0.00 0.00 0.00 61 1015.5
20260506121600 53 176 1.7 7.0 0.00 0.00 0.00 62 1015.5
20260506114607 53 337 3.5 9.6 0.00 0.00 0.00 61 1015.6